Location: Fours
(44.3167°N, 6.7000°E)
Time: 08:47:42
(UTC+00:00)

Meteor 1-4 Rocket - Pass Details

Date: 30 November 2020
Orbit: 449 x 500 km, 81.2° (Epoch: 25 January)

Event Time Altitude Azimuth Distance (km) Brightness Sun altitude
Rises 17:56:19 0° 211° (SSW) 2,526 6.8 -21.0°
Reaches altitude 10° 17:58:35 10° 222° (SW) 1,643 5.9 -21.4°
Maximum altitude 18:01:49 31° 286° (WNW) 851 4.3 -22.0°
Enters shadow 18:04:41 12° 347° (NNW) 1,505 5.1 -22.5°
